Weather in Parakou

Benin     9°21′36″N   2°37′16″E
temp.,
°C
wind,
m/s
gust,
m/s
humid.,
%
clouds,
%
prec.,
mm/h
press.,
hPa
HPBL,
m
31 july, sat
sat3101:00+23nw2391100 6.8 101470
04:00+22nw249799 4.0 1013185
07:00+22sw1397100 6.2 1014235
10:00+22s379796 1.4 1016421
13:00+25ssw358598 2.6 1015762
16:00+24wsw368965 2.6 1013484
19:00+23wsw259035 2.7 1014196
22:00+22sw249578 0.0 101696
1 august, sun
sun101:00+21sw1296100 0.0 101652
04:00+21sw2697100 0.0 1015234
07:00+21ssw2795100 0.0 1017368
10:00+25ssw3578100 0.0 1018611
13:00+28sw3466100 0.1 10151231
16:00+26wsw358294 5.0 1014383
19:00+23wsw269176 11.6 1015149
22:00+23sw259269 4.9 1017114
2 august, mon
mon201:00+22ssw2694100 6.5 1016190
04:00+21sw2697100 2.6 1016279
07:00+21wsw2698100 3.8 1017319
10:00+21wsw2597100 2.1 1018363
13:00+22wnw3794100 3.2 1017393
16:00+22wnw379199 0.1 1015487
19:00+21w129326 0.1 101435
22:00+21wnw229588 0.0 101645
3 august, tue
tue301:00+20wsw119551 0.0 101513
04:00+20wsw229699 0.0 101436
07:00+20ssw1195100 0.0 101513
10:00+25ssw237483 0.0 1016646
13:00+26sw127664 0.0 1014364
16:00+29wsw335963 0.1 10121426
19:00+26ssw238097 0.4 101251
22:00+23ssw3794100 1.3 1016158
4 august, wed
wed401:00+22ssw399648 1.6 1016379
04:00+21ssw389888 0.0 1015409
07:00+21ssw389798 0.0 1016458
10:00+23sw468697 0.0 1017610
13:00+28sw456971 0.4 10151134
16:00+28ssw447041 0.8 10131086
19:00+24ssw36865 1.9 1014156
22:00+22ssw279683 3.7 1017177